[[{"header":{"parameterUnit":"m.s-1","parameterCategory":1,"la1":30.2991,"la2":30.254,"lo1":-89.0895,"lo2":-89.0444,"dy":0.0017,"dx":0.0017,"nx":28,"ny":28,"refTime":"2023-10-05T21:00:00:Z","depth":0,"parameterNumber":2,"parameterNumberName":"U-component_of_WINDS"},"data":[0,0,0,0,0,0,0,0,0,0,0,0,0,0,0,0,0,0,0,0,0,0,0,0,0,0,0,0,0,0,0,0,0,0,0,0,0,0,0,0,0,0,0,0,0,0,0,0,0,0,0,0,0,0,0,0,0,0,0.2232,0.2234,0,0.2376,0.2378,0.2379,0.2475,0.2476,0.2477,0.2477,0.2622,0.2626,0.2629,0,0,0,0,0,0,0,0,0,0,0,0,0,0.2039,0.2042,0.2232,0.2234,0.2235,0.2376,0.2378,0.238,0.2475,0.2476,0.2477,0.2478,0.2621,0.2625,0.2629,0,0,0,0,0,0,0,0,0,0,0,0,0,0.2147,0.2043,0.2232,0.23,0.2308,0.2375,0.2378,0.238,0.2475,0.2476,0.2477,0.2478,0.262,0.2625,0.263,0.264,0,0,0.2644,0.2647,0,0,0,0,0,0,0,0,0.214,0.2154,0.2288,0.2296,0.2304,0.2409,0.2363,0.2467,0.2475,0.2411,0.2477,0.2478,0.255,0.2561,0.2586,0.2646,0.2653,0.2645,0.2648,0.265,0.2651,0,0,0,0,0,0,0,0.2133,0.2148,0.2289,0.229,0.23,0.2323,0.234,0.2383,0.2473,0.2417,0.2424,0.244,0.2555,0.2581,0.259,0.2655,0.2645,0.2649,0.2652,0.2654,0.2731,0.273,0,0,0,0,0,0,0.2115,0.2141,0.2284,0.2293,0.2223,0.2326,0.2344,0.2374,0.2473,0.2489,0.2439,0.2444,0.2572,0.2584,0.2595,0.2614,0.265,0.2654,0.2657,0.2732,0.2731,0.273,0,0,0,0,0,0,0.211,0.2127,0.2278,0.2219,0.224,0.2328,0.2361,0.2376,0.2403,0.249,0.2506,0.2449,0.2573,0.2588,0.2628,0.262,0.2657,0.2661,0.2733,0.2732,0.2731,0.265,0,0,0,0,0,0,0.2104,0.2124,0.2129,0.2219,0.2243,0.2309,0.236,0.2378,0.2411,0.2419,0.2504,0.2519,0.2575,0.262,0.2633,0.2627,0.2665,0.2734,0.2733,0.2731,0.2654,0.2646,0.264,0,0,0,0,0,0.2097,0.21,0.2129,0.2146,0.2251,0.2308,0.2322,0.2388,0.241,0.2415,0.2472,0.2516,0.2619,0.2624,0.2639,0.2634,0.2735,0.2733,0.2731,0.2657,0.2648,0.264,0,0,0,0,0,0,0.2007,0.2113,0.2146,0.2179,0.2234,0.2324,0.2333,0.2376,0.2425,0.243,0.2509,0.2528,0.2559,0.2601,0.2604,0.265,0.2682,0.2683,0.2621,0.2613,0.2606,0.2595,0.2669,0,0,0,0,0,0.1991,0.2029,0.212,0.2139,0.2166,0.2244,0.2272,0.2318,0.2378,0.2401,0.2461,0.2517,0.2562,0.259,0.2636,0.2661,0.2681,0.2665,0.2658,0.2652,0.2652,0.2668,0.2662,0.2724,0.2724,0.2724,0,0,0.1958,0.2021,0.204,0.2123,0.2171,0.2208,0.2263,0.23,0.2329,0.2407,0.2448,0.2493,0.2561,0.2593,0.2611,0.2629,0.2639,0.265,0.2644,0.2647,0.2665,0.2659,0.2654,0.2722,0.2723,0.2723,0,0,0.1917,0.1968,0.1991,0.2038,0.2111,0.2163,0.2168,0.2253,0.2287,0.233,0.2389,0.2424,0.25,0.2546,0.2579,0.2556,0.2599,0.2569,0.2532,0.2547,0.2542,0.2538,0.2529,0.2525,0.2569,0.2569,0.2568,0,0.1866,0.1925,0.1996,0.203,0.2065,0.2139,0.2162,0.2204,0.2288,0.231,0.233,0.2427,0.2478,0.2522,0.2517,0.2541,0.2549,0.2559,0.2537,0.2534,0.2531,0.2524,0.252,0.2564,0.2565,0.2565,0.2566,0,0.186,0.19,0.1909,0.1989,0.2025,0.2053,0.2128,0.2156,0.2199,0.2249,0.2292,0.2356,0.2416,0.243,0.2472,0.248,0.249,0.2522,0.2557,0.252,0.2514,0.2512,0.2559,0.256,0.2561,0.2562,0,0,0.1765,0.1885,0.1887,0.1924,0.201,0.2042,0.2074,0.2134,0.2156,0.2212,0.224,0.2303,0.2334,0.2371,0.2419,0.2432,0.241,0.2464,0.2466,0.2451,0.2423,0.2397,0.2393,0.2439,0.2439,0.2439,0.2417,0,0.1736,0.1797,0.1863,0.1901,0.1939,0.201,0.2037,0.2092,0.2141,0.2179,0.2233,0.2276,0.2314,0.2337,0.2353,0.2409,0.2405,0.2412,0.2465,0.2466,0.2445,0.239,0.2363,0.2339,0.2415,0.2415,0.2415,0,0.1711,0.1764,0.1806,0.1889,0.1907,0.1931,0.1992,0.2028,0.2093,0.2127,0.2169,0.222,0.2257,0.2287,0.2338,0.2341,0.2367,0.2398,0.2399,0.2405,0.2437,0.2395,0.2333,0.2329,0.2412,0.2412,0.2412,0,0.1637,0.1719,0.1755,0.1784,0.1882,0.1897,0.1939,0.2004,0.2037,0.209,0.2111,0.2167,0.2198,0.2239,0.2304,0.2321,0.2348,0.2384,0.2377,0.2375,0.2378,0.2377,0.2319,0.2396,0.2396,0.2396,0.2396,0,0.1598,0.1621,0.1723,0.1744,0.1772,0.1847,0.1872,0.192,0.1978,0.201,0.2075,0.2103,0.2187,0.2226,0.2277,0.2311,0.2324,0.2352,0.2365,0.2346,0.2342,0.2363,0.2366,0.2395,0.2395,0.2396,0.2396,0,0.1519,0.1589,0.1632,0.1722,0.1745,0.1761,0.1838,0.1862,0.1914,0.1954,0.1968,0.2049,0.2098,0.2167,0.2236,0.2271,0.2297,0.2319,0.2275,0.2283,0.2272,0.2271,0.2225,0.2222,0.23,0.2299,0.2299,0,0.1489,0.1509,0.1601,0.1627,0.1667,0.1709,0.1742,0.1817,0.1849,0.1925,0.1939,0.1993,0.204,0.2114,0.2179,0.2233,0.2255,0.2236,0.2264,0.2244,0.2254,0.2252,0.2254,0.2228,0.2227,0.2226,0.2225,0,0.1429,0.1463,0.1509,0.1567,0.1606,0.1655,0.1707,0.1725,0.1811,0.1844,0.1895,0.1932,0.2003,0.2056,0.2118,0.216,0.2206,0.2216,0.2217,0.2197,0.2171,0.2184,0.2256,0.2216,0.2217,0.2218,0.2218,0.2219,0.1374,0.1394,0.1462,0.1512,0.1559,0.1607,0.1634,0.169,0.1734,0.1799,0.1841,0.1889,0.1954,0.2042,0.2082,0.2121,0.214,0.2142,0.2142,0.2141,0.2134,0.2165,0.2133,0.2133,0.2134,0.2134,0.2134,0,0.1316,0.1364,0.1408,0.148,0.1519,0.1561,0.1621,0.1651,0.1693,0.175,0.1795,0.1854,0.1905,0.1975,0.2031,0.2048,0.2071,0.2061,0.2059,0.2068,0.2114,0.2107,0.2041,0.2041,0.2041,0.2041,0.2041,0.2041,0.129,0.1327,0.1369,0.143,0.1478,0.1527,0.1558,0.1602,0.1648,0.1711,0.1754,0.18,0.1861,0.1923,0.1971,0.1991,0.2008,0.199,0.2016,0.2057,0.2065,0.2073,0.2067,0.1994,0.1994,0.1967,0.1967,0.1966]},{"header":{"parameterUnit":"m.s-1","parameterCategory":1,"la1":30.2991,"la2":30.254,"lo1":-89.0895,"lo2":-89.0444,"dy":0.0017,"dx":0.0017,"nx":28,"ny":28,"refTime":"2023-10-05T21:00:00:Z","depth":0,"parameterNumber":3,"parameterNumberName":"V-component_of_WINDS"},"data":[0,0,0,0,0,0,0,0,0,0,0,0,0,0,0,0,0,0,0,0,0,0,0,0,0,0,0,0,0,0,0,0,0,0,0,0,0,0,0,0,0,0,0,0,0,0,0,0,0,0,0,0,0,0,0,0,0,0,0.509,0.5091,0,0.5132,0.5133,0.5133,0.5186,0.5187,0.5188,0.5189,0.5229,0.5229,0.523,0,0,0,0,0,0,0,0,0,0,0,0,0,0.5052,0.5052,0.509,0.5091,0.5091,0.5132,0.5133,0.5133,0.5186,0.5187,0.5188,0.5189,0.5229,0.5229,0.523,0,0,0,0,0,0,0,0,0,0,0,0,0,0.5078,0.5052,0.509,0.5123,0.5126,0.5132,0.5133,0.5133,0.5186,0.5187,0.5189,0.519,0.5229,0.5229,0.523,0.5206,0,0,0.5231,0.5231,0,0,0,0,0,0,0,0,0.5077,0.508,0.5117,0.5121,0.5124,0.5155,0.5134,0.5158,0.5186,0.5163,0.5189,0.519,0.5203,0.5206,0.5211,0.5208,0.521,0.5231,0.5231,0.5231,0.5231,0,0,0,0,0,0,0,0.5075,0.5078,0.5107,0.5118,0.5122,0.5134,0.5139,0.5139,0.5175,0.5165,0.5169,0.5174,0.5205,0.521,0.5212,0.521,0.5231,0.5231,0.5231,0.5232,0.5187,0.5186,0,0,0,0,0,0,0.5069,0.5076,0.5106,0.5108,0.5103,0.5133,0.5139,0.5144,0.5176,0.5182,0.5172,0.5176,0.5209,0.5212,0.5214,0.5186,0.5231,0.5232,0.5232,0.5189,0.5187,0.5185,0,0,0,0,0,0,0.5068,0.5071,0.5104,0.5093,0.5098,0.5133,0.5138,0.5144,0.5149,0.5181,0.5187,0.5171,0.521,0.5213,0.5207,0.5189,0.5232,0.5232,0.519,0.5188,0.5186,0.5133,0,0,0,0,0,0,0.5066,0.507,0.5063,0.5093,0.5099,0.5098,0.5137,0.5144,0.515,0.5155,0.5181,0.5187,0.5211,0.5206,0.5208,0.519,0.5233,0.5192,0.5189,0.5187,0.5136,0.5129,0.5123,0,0,0,0,0,0.5065,0.5046,0.5062,0.5065,0.5091,0.5097,0.51,0.5129,0.5148,0.514,0.516,0.5186,0.5191,0.5205,0.5207,0.5189,0.5193,0.519,0.5187,0.5139,0.513,0.5123,0,0,0,0,0,0,0.5013,0.5051,0.5069,0.506,0.5075,0.5106,0.5097,0.5119,0.5128,0.5133,0.5168,0.5173,0.5162,0.5175,0.5191,0.5167,0.5196,0.5193,0.5158,0.515,0.5144,0.514,0.5233,0,0,0,0,0,0.5,0.5003,0.5036,0.5025,0.5031,0.5062,0.5066,0.5087,0.5104,0.511,0.513,0.5143,0.5148,0.515,0.5156,0.5138,0.5143,0.5127,0.512,0.5114,0.5111,0.51,0.5092,0.5175,0.5175,0.5175,0,0,0.4975,0.4996,0.4995,0.5015,0.5029,0.5029,0.5067,0.5067,0.5067,0.511,0.5105,0.5119,0.5137,0.5124,0.512,0.5135,0.5089,0.511,0.5105,0.5105,0.5096,0.5088,0.5081,0.5173,0.5173,0.5173,0,0,0.4928,0.4945,0.4936,0.4949,0.4969,0.499,0.4987,0.5015,0.5026,0.5022,0.5053,0.5053,0.506,0.5071,0.5077,0.5031,0.5054,0.5032,0.4996,0.4985,0.4978,0.4973,0.4954,0.4947,0.5029,0.5028,0.5028,0,0.4893,0.4896,0.4928,0.4925,0.4932,0.497,0.496,0.4971,0.4992,0.4994,0.5012,0.502,0.5035,0.5024,0.5012,0.5017,0.5013,0.5029,0.4977,0.4972,0.4967,0.4949,0.4942,0.5026,0.5026,0.5026,0.5026,0,0.4851,0.4852,0.4843,0.4862,0.4867,0.4861,0.489,0.4891,0.4911,0.4929,0.4922,0.4941,0.495,0.495,0.4969,0.494,0.4949,0.4971,0.5,0.4955,0.4939,0.4933,0.5021,0.5022,0.5023,0.5024,0,0,0.4774,0.4809,0.4805,0.4813,0.4837,0.4838,0.4832,0.4841,0.484,0.4853,0.4847,0.4851,0.4871,0.4878,0.4899,0.4889,0.4848,0.4912,0.4913,0.4898,0.4815,0.4797,0.4789,0.4864,0.4863,0.4862,0.4812,0,0.473,0.4723,0.475,0.4735,0.4735,0.4771,0.4765,0.4778,0.4794,0.4795,0.4813,0.4814,0.4842,0.4845,0.4837,0.4855,0.4832,0.4859,0.4857,0.4857,0.485,0.4781,0.4763,0.4715,0.4807,0.4806,0.4805,0,0.4679,0.4688,0.4673,0.4695,0.4696,0.4691,0.47,0.4702,0.4716,0.4728,0.4735,0.4758,0.4752,0.478,0.4771,0.4788,0.4789,0.4797,0.4796,0.4796,0.4827,0.4777,0.4701,0.4693,0.4796,0.4797,0.4797,0,0.4621,0.463,0.4621,0.4627,0.4654,0.4649,0.466,0.4676,0.4678,0.4686,0.4688,0.4694,0.4697,0.4701,0.4725,0.4744,0.4711,0.4742,0.4719,0.4718,0.471,0.471,0.4631,0.4712,0.4712,0.4713,0.4713,0,0.4569,0.4558,0.4596,0.459,0.4578,0.4608,0.4595,0.4609,0.4622,0.4618,0.4649,0.4645,0.4678,0.4676,0.4695,0.4682,0.4684,0.4692,0.4697,0.4688,0.4687,0.4688,0.4692,0.4711,0.4711,0.4711,0.4712,0,0.4503,0.4528,0.4521,0.4546,0.4552,0.4541,0.4562,0.4557,0.4574,0.4569,0.4569,0.4596,0.4596,0.462,0.4625,0.4637,0.4616,0.4627,0.4611,0.4614,0.4588,0.459,0.4507,0.4496,0.4585,0.4585,0.4584,0,0.4468,0.446,0.4484,0.4484,0.4493,0.4492,0.4495,0.4524,0.4525,0.454,0.4532,0.4534,0.4537,0.4535,0.4553,0.4556,0.4567,0.4538,0.4568,0.4559,0.4564,0.4564,0.4562,0.4531,0.453,0.4529,0.4528,0,0.4401,0.4414,0.4417,0.4423,0.4426,0.4432,0.4441,0.4439,0.447,0.4469,0.4469,0.4472,0.4476,0.4476,0.4482,0.4492,0.4514,0.4519,0.4513,0.4504,0.4494,0.4497,0.4592,0.452,0.4521,0.4522,0.4522,0.4522,0.4349,0.4342,0.4357,0.4359,0.4368,0.4375,0.437,0.4386,0.4387,0.4393,0.4409,0.4406,0.4418,0.4428,0.4435,0.4431,0.4446,0.4438,0.4436,0.4433,0.4428,0.4495,0.4433,0.4433,0.4433,0.4433,0.4433,0,0.4283,0.4293,0.4295,0.4305,0.4305,0.4327,0.4337,0.4335,0.4332,0.4342,0.4344,0.4342,0.4342,0.436,0.4362,0.4355,0.4365,0.4355,0.4355,0.4356,0.4416,0.4419,0.4346,0.4346,0.4346,0.4346,0.4346,0.4346,0.4248,0.4238,0.4251,0.4244,0.4255,0.4252,0.4255,0.426,0.4268,0.4265,0.4265,0.4277,0.4289,0.4291,0.4292,0.4297,0.4295,0.428,0.4289,0.4344,0.4352,0.436,0.4364,0.428,0.428,0.4229,0.4229,0.4228]}]]